Stations météo

Publicité
New York City, ny, Etats-Unis (2074728): Température de l'air & dewpoint: 03.08.2020 01:00:00 - 09.08.2020 01:00:00 (EDT)New York City, ny, Etats-Unis (2074728): Vitesse du vent & gusts: 03.08.2020 01:00:00 - 09.08.2020 01:00:00 (EDT)New York City, ny, Etats-Unis (2074728): Direction du vent: 03.08.2020 01:00:00 - 09.08.2020 01:00:00 (EDT)New York City, ny, Etats-Unis (2074728): reduced air pressure: 03.08.2020 01:00:00 - 09.08.2020 01:00:00 (EDT)New York City, ny, Etats-Unis (2074728): visibility: 03.08.2020 01:00:00 - 09.08.2020 01:00:00 (EDT)New York City, ny, Etats-Unis (2074728): Quantités de précipitations: 03.08.2020 01:00:00 - 09.08.2020 01:00:00 (EDT)
Date & Time tt [°C] td [°C] ff [km/h] ff [knt] fx [km/h] fx [knt] dd ppp [hPa] vv [km] rr [mm]
09.08.2020 01:00:00 22,8 20,0 0 0 - - N 1020,4 16 -
09.08.2020 00:00:00 22,8 20,0 0 0 - - N 1020,6 16 -
08.08.2020 23:00:00 22,8 20,0 5 3 - - SE 1020,5 16 -
08.08.2020 22:00:00 22,8 20,0 0 0 - - N 1020,7 16 -
08.08.2020 21:00:00 23,3 20,0 0 0 - - N 1020,0 16 -
08.08.2020 20:00:00 23,9 20,0 5 3 - - - 1019,5 16 -
08.08.2020 19:00:00 25,0 20,0 8 4 - - - 1019,2 16 -
08.08.2020 18:00:00 26,1 20,0 8 4 - - - 1019,2 16 -
08.08.2020 17:00:00 26,1 20,6 13 7 - - SE 1019,5 16 -
08.08.2020 16:00:00 27,2 21,1 11 6 - - - 1019,6 16 -
08.08.2020 15:00:00 25,6 20,0 0 0 - - N 1020,2 16 -
08.08.2020 14:00:00 28,3 20,0 0 0 - - N 1020,7 16 -
08.08.2020 13:00:00 25,6 19,4 0 0 - - N 1021,0 16 -
08.08.2020 12:00:00 24,4 20,6 5 3 - - - 1021,0 16 -
08.08.2020 11:00:00 23,9 20,0 0 0 - - N 1021,4 16 -
08.08.2020 10:00:00 23,3 20,6 0 0 - - N 1021,4 16 -
08.08.2020 09:00:00 22,8 20,6 5 3 - - ENE 1021,3 16 -
08.08.2020 08:00:00 21,7 20,6 5 3 - - NE 1021,3 15 -
08.08.2020 07:00:00 21,1 20,0 0 0 - - N 1021,1 13 -
08.08.2020 06:00:00 20,6 20,0 5 3 - - NNE 1020,6 11 -
08.08.2020 05:00:00 20,6 19,4 8 4 - - - 1019,8 10 -
08.08.2020 04:00:00 20,6 19,4 8 4 - - ENE 1020,5 11 -
08.08.2020 03:00:00 21,7 20,6 0 0 - - N 1020,6 8 -
08.08.2020 02:00:00 21,7 20,0 5 3 - - N 1020,4 15 -
08.08.2020 01:00:00 21,1 20,0 0 0 - - N 1020,3 8 -
08.08.2020 00:00:00 21,1 20,6 0 0 - - N 1019,9 4,0 -
07.08.2020 23:00:00 21,1 20,6 5 3 - - NE 1019,7 4,8 -
07.08.2020 22:00:00 21,7 20,6 8 4 - - NE 1019,5 6 0,3
07.08.2020 21:00:00 21,7 20,6 0 0 - - N 1019,3 4,8 0,0
07.08.2020 20:00:00 21,1 19,4 0 0 - - N 1020,0 8 0,5
07.08.2020 19:00:00 23,3 18,9 9 5 - - NE 1019,5 16 -
07.08.2020 18:00:00 23,9 20,0 5 3 - - E 1019,6 16 -
07.08.2020 17:00:00 25,6 18,9 11 6 - - E 1019,1 16 -
07.08.2020 16:00:00 25,0 18,9 9 5 - - ENE 1019,6 16 -
07.08.2020 15:00:00 25,0 18,9 9 5 - - E 1019,9 16 -
07.08.2020 14:00:00 26,1 18,9 8 4 - - - 1020,0 16 -
07.08.2020 13:00:00 25,6 17,8 11 6 - - - 1020,3 16 -
07.08.2020 12:00:00 23,9 18,3 13 7 - - NE 1020,7 16 -
07.08.2020 11:00:00 21,7 19,4 9 5 - - - 1021,1 15 -
07.08.2020 10:00:00 21,1 20,0 8 4 - - - 1021,1 4,8 0,8
07.08.2020 09:00:00 20,0 19,4 8 4 - - ENE 1021,2 3,2 0,3
07.08.2020 08:00:00 20,0 18,9 11 6 - - - 1020,8 6 0,5
07.08.2020 07:00:00 19,4 18,3 9 5 - - NE 1020,5 4,0 0,3
07.08.2020 06:00:00 20,0 18,9 0 0 - - N 1020,1 6 1,8
07.08.2020 05:00:00 22,8 15,6 0 0 - - N 1019,3 16 -
07.08.2020 04:00:00 22,8 16,7 8 4 - - - 1018,7 16 -
07.08.2020 03:00:00 22,8 15,6 5 3 - - - 1018,8 16 -
07.08.2020 02:00:00 22,8 15,6 0 0 - - N 1019,1 16 -
07.08.2020 01:00:00 22,8 15,6 0 0 - - N 1019,4 16 -
07.08.2020 00:00:00 22,8 14,4 0 0 - - N 1019,5 16 -
06.08.2020 23:00:00 23,3 13,9 0 0 - - N 1019,6 16 -
06.08.2020 22:00:00 23,3 13,9 5 3 - - SE 1019,7 16 -
06.08.2020 21:00:00 23,9 12,8 0 0 - - N 1019,7 16 -
06.08.2020 20:00:00 24,4 13,3 0 0 - - N 1019,1 16 -
06.08.2020 19:00:00 24,4 16,1 0 0 - - N 1019,0 16 -
06.08.2020 18:00:00 25,0 16,7 - - - - - 1018,9 16 -
06.08.2020 17:00:00 26,1 17,8 8 4 - - - 1018,6 16 -
06.08.2020 16:00:00 25,6 18,3 0 0 - - N 1018,8 16 -
06.08.2020 15:00:00 26,1 18,3 5 3 - - SSE 1019,5 16 -
06.08.2020 14:00:00 25,6 18,3 0 0 - - N 1019,5 16 -
06.08.2020 13:00:00 26,1 17,8 11 6 - - - 1019,8 16 -
06.08.2020 12:00:00 25,0 16,7 9 5 - - E 1020,2 16 0,0
06.08.2020 11:00:00 21,7 16,7 8 4 - - NE 1020,4 16 0,0
06.08.2020 10:00:00 23,3 17,2 8 4 - - NE 1020,0 16 -
06.08.2020 09:00:00 23,9 16,1 8 4 - - - 1019,5 16 -
06.08.2020 08:00:00 23,3 16,7 8 4 - - NE 1019,2 16 -
06.08.2020 07:00:00 22,8 17,2 5 3 - - NNE 1018,9 16 -
06.08.2020 06:00:00 22,8 16,7 5 3 - - WNW 1018,5 16 -
06.08.2020 05:00:00 22,8 15,6 0 0 - - N 1018,1 16 -
06.08.2020 04:00:00 23,3 15,6 0 0 - - N 1018,0 16 -
06.08.2020 03:00:00 23,9 15,6 0 0 - - N 1017,9 16 -
06.08.2020 02:00:00 23,9 15,6 0 0 - - N 1018,0 16 -
06.08.2020 01:00:00 24,4 15,0 5 3 - - - 1018,2 16 -
06.08.2020 00:00:00 24,4 15,6 0 0 - - N 1017,9 16 -
05.08.2020 23:00:00 25,0 15,0 5 3 - - - 1017,7 16 -
05.08.2020 22:00:00 26,1 14,4 0 0 - - N 1017,4 16 -
05.08.2020 21:00:00 26,7 15,0 - - - - - 1016,8 16 -
05.08.2020 20:00:00 27,8 14,4 5 3 - - - 1016,6 16 -
05.08.2020 19:00:00 27,8 15,0 13 7 - - W 1016,3 16 -
05.08.2020 18:00:00 28,3 16,1 0 0 - - N 1016,1 16 -
05.08.2020 17:00:00 28,9 15,0 11 6 - - - 1016,1 16 -
05.08.2020 16:00:00 29,4 16,1 0 0 - - N 1015,9 16 -
05.08.2020 15:00:00 29,4 15,6 16 9 - - SW 1016,1 16 -
05.08.2020 14:00:00 29,4 15,6 13 7 - - WNW 1016,1 16 -
05.08.2020 13:00:00 27,8 17,8 9 5 - - WSW 1016,6 16 -
05.08.2020 12:00:00 28,9 16,1 5 3 - - - 1016,6 16 -
05.08.2020 11:00:00 27,2 17,8 13 7 - - WNW 1016,4 16 -
05.08.2020 10:00:00 25,6 19,4 9 5 - - - 1016,0 16 -
05.08.2020 09:00:00 25,0 20,0 5 3 - - W 1015,7 16 -
05.08.2020 08:00:00 23,9 20,6 - - - - - 1015,4 16 -
05.08.2020 07:00:00 23,3 21,1 5 3 - - WSW 1014,7 16 -
05.08.2020 06:00:00 - - - - - - - - - -
05.08.2020 05:00:00 23,9 20,6 15 8 - - WSW 1013,5 16 -
05.08.2020 04:00:00 24,4 20,6 8 4 - - - 1013,3 16 -
05.08.2020 03:00:00 24,4 20,6 5 3 - - - 1013,2 16 -
05.08.2020 02:00:00 23,9 20,6 - - - - - 1013,5 16 -
05.08.2020 01:00:00 24,4 20,0 5 3 - - WNW 1013,5 16 -
05.08.2020 00:00:00 25,0 20,6 - - - - - 1013,0 16 -
04.08.2020 23:00:00 24,4 20,6 8 4 - - - 1012,6 16 -
04.08.2020 22:00:00 25,0 18,9 8 4 - - SW 1012,2 16 -
04.08.2020 21:00:00 25,0 18,9 9 5 - - SW 1011,4 16 -
04.08.2020 20:00:00 25,6 18,3 9 5 - - WSW 1010,6 16 -
04.08.2020 19:00:00 25,6 17,8 15 8 48 26 W 1009,2 16 -
04.08.2020 18:00:00 26,1 18,3 9 5 54 29 - 1007,6 16 -
04.08.2020 17:00:00 25,0 18,9 26 14 74 40 WSW 1005,4 16 0,0
04.08.2020 16:00:00 22,8 21,1 18 10 50 27 WSW 1000,0 11 0,3
04.08.2020 15:00:00 21,7 20,0 5 3 67 36 - 997,7 4,8 0,0
04.08.2020 14:00:00 - - - - - - - - - -
04.08.2020 13:00:00 24,4 22,8 34 18 68 37 SE 1001,3 8 3,0
04.08.2020 12:00:00 24,4 23,3 13 7 52 28 E 1005,7 4,8 0,5
04.08.2020 11:00:00 25,0 23,3 16 9 - - E 1009,6 10 0,0
04.08.2020 10:00:00 25,0 23,3 21 11 - - SE 1012,2 15 -
04.08.2020 09:00:00 25,0 23,9 11 6 - - - 1013,3 11 -
04.08.2020 08:00:00 23,3 22,2 0 0 - - N 1013,9 10 -
04.08.2020 07:00:00 22,8 22,2 9 5 - - ENE 1014,5 8 0,0
04.08.2020 06:00:00 22,2 21,7 8 4 - - ENE 1015,2 15 1,0
04.08.2020 05:00:00 22,8 21,7 8 4 - - - 1015,7 13 0,0
04.08.2020 04:00:00 22,8 21,7 5 3 - - - 1015,9 11 0,8
04.08.2020 03:00:00 22,2 20,6 0 0 - - N 1016,7 16 -
04.08.2020 02:00:00 22,2 21,1 0 0 - - N 1017,1 16 -
04.08.2020 01:00:00 22,2 21,1 5 3 - - - 1017,6 15 -
04.08.2020 00:00:00 22,2 21,7 0 0 - - N 1017,0 11 0,0
03.08.2020 23:00:00 22,8 21,7 5 3 - - NNE 1017,2 13 0,0
03.08.2020 22:00:00 21,1 20,6 5 3 - - WSW 1017,5 16 13,7
03.08.2020 21:00:00 28,9 19,4 15 8 - - WSW 1016,9 16 4,1
03.08.2020 20:00:00 28,3 19,4 5 3 - - - 1016,7 16 -
03.08.2020 19:00:00 28,9 18,3 8 4 - - - 1016,3 16 -
03.08.2020 18:00:00 29,4 18,3 9 5 - - - 1016,3 16 -
03.08.2020 17:00:00 30,0 17,2 - - - - - 1015,8 16 -
03.08.2020 16:00:00 31,1 16,1 9 5 - - - 1016,1 16 -
03.08.2020 15:00:00 30,6 17,2 0 0 - - N 1016,3 16 -
03.08.2020 14:00:00 30,0 17,8 8 4 - - - 1016,3 16 -
03.08.2020 13:00:00 30,0 17,8 9 5 - - - 1016,4 16 -
03.08.2020 12:00:00 28,9 17,2 9 5 - - - 1016,6 16 -
03.08.2020 11:00:00 27,2 17,8 5 3 - - - 1016,6 16 -
03.08.2020 10:00:00 26,1 17,2 11 6 - - W 1016,4 16 -
03.08.2020 09:00:00 25,0 17,8 0 0 - - N 1016,1 16 -
03.08.2020 08:00:00 25,0 17,2 15 8 - - WSW 1015,9 16 -
03.08.2020 07:00:00 25,6 16,7 9 5 - - WSW 1015,2 16 -
03.08.2020 06:00:00 26,1 17,2 - - - - - 1014,7 16 -
03.08.2020 05:00:00 26,7 17,8 11 6 - - WSW 1013,8 16 -
03.08.2020 04:00:00 27,2 18,9 5 3 - - - 1013,1 16 -
03.08.2020 03:00:00 28,3 21,7 11 6 - - - 1012,8 16 -
03.08.2020 02:00:00 27,8 23,3 11 6 - - - 1011,9 16 -
03.08.2020 01:00:00 28,3 23,3 8 4 - - - 1012,1 16 -

tt = Température de l'air
td = dewpoint
ff = Vitesse du vent
fx = gusts
dd = Direction du vent
ppp = reduced air pressure
vv = visibility
rr = Quantités de précipitations

stations d'obs. à proximité